User: anonymous   Login
Location: Unspecified
(0.0000°N, 0.0000°E)
Time: 05:31:05
(UTC+00:00)
Language:

AISAT - Orbit

View from above orbital plane
View from above orbital plane
View from above satellite
View from above satellite

Ground track
Ground track

The orbit data is extracted from the following two-line orbital elements,

1 40054U 14034B   17344.26161792 +.00000464 +00000-0 +72950-4 0  9999
2 40054 098.1946 086.5752 0012822 195.8993 164.1816 14.77304401185714
Epoch (UTC): 10 December 2017 06:16:43
Eccentricity: 0.0012822
inclination: 98.1946°
perigee height: 629 km
apogee height: 647 km
right ascension of ascending node: 86.5752°
argument of perigee: 195.8993°
revolutions per day: 14.77304401
mean anomaly at epoch: 164.1816°
orbit number at epoch: 18571

The dashed part of the orbit path shows where the satellite is in the earth's shadow,  

DLR